Location: Valencia
(39.4670°N, 0.3670°W)
Time: 08:48:41
(UTC+02:00)

ISS - Pass Details

Date: 09 July 2017
Orbit: 400 x 408 km, 51.6° (Epoch: 21 July)

Event Time Altitude Azimuth Distance (km) Brightness Sun altitude
Exits shadow 05:57:38 - 271° (W) 1,773 -1.0 -8.0°
Reaches altitude 10° 05:58:34 10° 279° (W) 1,451 -1.4 -7.9°
Maximum altitude 06:01:14 23° 334° (NNW) 911 -1.9 -7.5°
Drops below altitude 10° 06:03:55 10° 30° (NNE) 1,460 0.3 -7.1°
Sets 06:06:17 0° 45° (NE) 2,324 2.3 -6.7°
